Altus Air Force Base
KLTS : now visible

Airfield :











YOU CAN JOIN US ON...

 
LOGIN :

Register | Disclaimer

   EN    FR    IT 

 









Legend :    VFR   Marginal VFR   IFR   Intensive IFR   Very Intensive IFR
Visi :
Ceiling :
>= 8 km
>= 3000ft
5 to 8 km
1000 to 3000 ft
1500m to 5 km
500 to 1000 ft
800 to 1500m
200 to 500 ft
< 800m
< 200 ft
Symbols :   Thunderstorms  Fog  Heavy snow  Heavy precipitations  Wind > 20 kt






- Airport Elevation : 1382 ft


KLTS - Altus Air Force Base

CURRENT METAR :
  • 050056Z AUTO 12004KT 10SM CLR 29/18 A3002 RMK AO2 SLP153 T02940182 $

EXPIRED METARs :
  • 042356Z AUTO 16004KT 10SM CLR 31/16 A3002 RMK AO2 SLP153 T03080164 10316 20295 56007 $
  • 042256Z AUTO 16006KT 10SM CLR 31/16 A3002 RMK AO2 SLP153 T03090161 $

TAF TAF KLTS
Valid from the 04 at 17:00 until the 05 at 23:00 UTC


041704Z 0417/0523 VRB06KT 9999 SKC QNH3005INS
BECMG 0418/0419 14010G15KT 9999 SKC QNH2998INS
BECMG 0423/0424 VRB06KT 9999 SKC QNH2998INS
BECMG 0505/0506 VRB06KT 9999 SCT130 BKN150 QNH3003INS
BECMG 0516/0517 22010G15KT 9999 SCT090 BKN110 QNH2994INS TX32/0421Z TN20/0512Z
KZFW FIR / North America



MET'MAP, your aeronautical weather chart ! - Copyright ORBIFLY December 2007 - Disclaimer

ORBIFLY MET'MAP TEAM :

Programming & Development : Alexandra Zaïnal
Concept & original design : Baudouin d'Aumeries
Assistance for programming : Marc-Olivier Méhu
Technical & hardware support : Manuel Goepfert

Contact : metmap@orbifly.com




SOURCES & CREDITS :

   NOAA       Earth
Advisory